RYR9QH GMTT-EBCI

Flight info

Callsign RYR9QH
Flight time N/A
Altitude 18000
Route NOLRO DCT ADKIM Z53 VJF/N0453F360 N10 HIJ Z230 TLD N858 DGO L176 LUSEM/N0456F340 DCT LULUT DCT ADABI DCT BOKNO UN858 VANAD UN874 BAMES UT191 PODEM UN873 BAZOS DCT BELDI DCT VEKIN Z173 ARVOL
Aircraft B38M/M-SDE1FGHILORVWXY/HB1

Departure

Time 2026-04-21 01:12
Airport Tangier Ibn Battuta Airport (GMTT)

Arrival

Time N/A
Airport Brussels South Charleroi Airport (EBCI)
Time Latitude Longitude Altitude Speed Heading
2026-04-21 00:28 35.72520 -5.91249 62 ft 0 kts 355°
2026-04-21 00:59 35.72516 -5.91249 62 ft 3 kts 354°
2026-04-21 00:59 35.72489 -5.91244 59 ft 4 kts 346°
2026-04-21 00:59 35.72464 -5.91233 58 ft 4 kts 329°
2026-04-21 00:59 35.72447 -5.91213 57 ft 4 kts 282°
2026-04-21 01:00 35.72446 -5.91204 62 ft 1 kts 265°
2026-04-21 01:04 35.72445 -5.91224 58 ft 5 kts 265°
2026-04-21 01:04 35.72441 -5.91281 62 ft 8 kts 265°
2026-04-21 01:05 35.72436 -5.91359 62 ft 10 kts 265°
2026-04-21 01:05 35.72430 -5.91452 62 ft 12 kts 266°
2026-04-21 01:05 35.72425 -5.91561 55 ft 14 kts 274°
2026-04-21 01:05 35.72474 -5.91661 62 ft 15 kts 324°
2026-04-21 01:06 35.72578 -5.91692 62 ft 16 kts 355°
2026-04-21 01:06 35.72697 -5.91704 62 ft 18 kts 355°
2026-04-21 01:06 35.72827 -5.91716 62 ft 19 kts 356°
2026-04-21 01:06 35.72928 -5.91735 56 ft 11 kts 322°
2026-04-21 01:07 35.72956 -5.91823 62 ft 12 kts 277°
2026-04-21 01:07 35.72965 -5.91934 62 ft 14 kts 276°
2026-04-21 01:07 35.72976 -5.92059 59 ft 15 kts 278°
2026-04-21 01:07 35.72990 -5.92195 62 ft 17 kts 276°
2026-04-21 01:08 35.73003 -5.92351 59 ft 19 kts 276°
2026-04-21 01:08 35.73019 -5.92520 62 ft 21 kts 276°
2026-04-21 01:08 35.73037 -5.92699 62 ft 22 kts 276°
2026-04-21 01:08 35.73053 -5.92890 62 ft 23 kts 276°
2026-04-21 01:09 35.73076 -5.93092 58 ft 24 kts 277°
2026-04-21 01:09 35.73093 -5.93302 62 ft 25 kts 277°
2026-04-21 01:09 35.73115 -5.93523 56 ft 27 kts 277°
2026-04-21 01:09 35.73137 -5.93751 62 ft 28 kts 277°
2026-04-21 01:10 35.73158 -5.93967 62 ft 17 kts 279°
2026-04-21 01:10 35.73230 -5.94054 60 ft 0 kts 356°
2026-04-21 01:11 35.73231 -5.94055 62 ft 1 kts 356°
2026-04-21 01:11 35.73261 -5.94052 58 ft 10 kts 11°
2026-04-21 01:11 35.73333 -5.93976 61 ft 15 kts 72°
2026-04-21 01:11 35.73324 -5.93826 61 ft 27 kts 96°
2026-04-21 01:12 35.73269 -5.93237 60 ft 109 kts 96°
2026-04-21 01:12 35.73159 -5.92020 85 ft 172 kts 96°
2026-04-21 01:12 35.72994 -5.90439 643 ft 193 kts 97°
2026-04-21 01:12 35.72817 -5.88741 1506 ft 212 kts 97°
2026-04-21 01:13 35.72623 -5.86812 2132 ft 236 kts 98°
2026-04-21 01:13 35.72432 -5.84851 3285 ft 230 kts 99°
2026-04-21 01:13 35.72259 -5.82882 4197 ft 231 kts 97°
2026-04-21 01:13 35.72111 -5.80893 5067 ft 235 kts 98°
2026-04-21 01:14 35.71727 -5.78935 5537 ft 237 kts 120°
2026-04-21 01:14 35.70603 -5.77555 5553 ft 230 kts 156°
2026-04-21 01:14 35.69044 -5.77181 5682 ft 231 kts 184°
2026-04-21 01:14 35.67521 -5.77808 5785 ft 235 kts 213°
2026-04-21 01:15 35.66468 -5.79348 5829 ft 241 kts 245°
2026-04-21 01:15 35.66201 -5.81390 6180 ft 247 kts 277°
2026-04-21 01:15 35.66749 -5.83396 6818 ft 260 kts 293°
2026-04-21 01:15 35.67739 -5.85366 7315 ft 280 kts 303°
2026-04-21 01:16 35.68899 -5.87375 7937 ft 292 kts 303°
2026-04-21 01:16 35.70069 -5.89414 8888 ft 291 kts 302°
2026-04-21 01:16 35.71243 -5.91472 9699 ft 296 kts 302°
2026-04-21 01:16 35.72435 -5.93568 10350 ft 306 kts 301°
2026-04-21 01:17 35.73691 -5.95781 10713 ft 325 kts 301°
2026-04-21 01:17 35.75030 -5.98138 11013 ft 345 kts 301°
2026-04-21 01:17 35.76559 -6.00453 11365 ft 364 kts 315°
2026-04-21 01:17 35.78716 -6.02156 12038 ft 374 kts 335°
2026-04-21 01:18 35.81261 -6.02909 12809 ft 381 kts 354°
2026-04-21 01:18 35.83925 -6.02740 13561 ft 386 kts
2026-04-21 01:18 35.86612 -6.02410 14163 ft 391 kts
2026-04-21 01:18 35.89333 -6.02065 14853 ft 393 kts
2026-04-21 01:19 35.92061 -6.01714 15512 ft 397 kts
2026-04-21 01:19 35.94818 -6.01356 16151 ft 400 kts
2026-04-21 01:19 35.97591 -6.00995 16781 ft 404 kts
2026-04-21 01:19 36.00394 -6.00629 17400 ft 407 kts
2026-04-21 01:20 36.03224 -6.00260 18015 ft 411 kts
2026-04-21 01:20 36.06085 -5.99887 18547 ft 414 kts
2026-04-21 01:20 36.08964 -5.99510 19075 ft 417 kts
2026-04-21 01:20 36.11830 -5.99135 19599 ft 421 kts
2026-04-21 01:21 36.14756 -5.98752 20109 ft 424 kts
2026-04-21 01:21 36.17709 -5.98366 20614 ft 427 kts
2026-04-21 01:21 36.20678 -5.97976 21125 ft 430 kts
2026-04-21 01:21 36.23653 -5.97564 21608 ft 434 kts
2026-04-21 01:22 36.26657 -5.97018 22111 ft 437 kts
2026-04-21 01:22 36.29681 -5.96475 22593 ft 441 kts
2026-04-21 01:22 36.32731 -5.95934 23080 ft 444 kts
2026-04-21 01:22 36.35802 -5.95390 23540 ft 447 kts
2026-04-21 01:23 36.38888 -5.94845 23937 ft 449 kts
2026-04-21 01:23 36.41992 -5.94296 24332 ft 452 kts
2026-04-21 01:23 36.45122 -5.93742 24722 ft 455 kts
2026-04-21 01:23 36.48256 -5.93186 25115 ft 458 kts
2026-04-21 01:24 36.51421 -5.92625 25473 ft 461 kts
2026-04-21 01:24 36.54569 -5.92066 25830 ft 464 kts
2026-04-21 01:24 36.57785 -5.91495 26187 ft 467 kts
2026-04-21 01:24 36.61009 -5.90922 26555 ft 469 kts
2026-04-21 01:25 36.64251 -5.90345 26932 ft 471 kts
2026-04-21 01:25 36.67508 -5.89765 27284 ft 474 kts
2026-04-21 01:25 36.70769 -5.89184 27617 ft 477 kts
2026-04-21 01:25 36.74061 -5.88597 27960 ft 479 kts
2026-04-21 01:26 36.77370 -5.88006 28281 ft 482 kts
2026-04-21 01:26 36.80707 -5.87410 28603 ft 485 kts
2026-04-21 01:26 36.84051 -5.86812 28917 ft 487 kts
2026-04-21 01:26 36.87369 -5.86218 29266 ft 490 kts
2026-04-21 01:27 36.90755 -5.85611 29638 ft 490 kts
2026-04-21 01:27 36.94137 -5.85004 30063 ft 490 kts
2026-04-21 01:27 36.97496 -5.84402 30437 ft 489 kts
2026-04-21 01:27 37.00874 -5.83795 30819 ft 489 kts
2026-04-21 01:28 37.04241 -5.83189 31202 ft 488 kts
2026-04-21 01:28 37.07606 -5.82584 31577 ft 487 kts
2026-04-21 01:28 37.10918 -5.81987 31989 ft 486 kts
2026-04-21 01:28 37.14271 -5.81382 32381 ft 485 kts
2026-04-21 01:29 37.17609 -5.80780 32752 ft 484 kts
2026-04-21 01:29 37.20927 -5.80181 33104 ft 484 kts
2026-04-21 01:29 37.24255 -5.79579 33477 ft 483 kts
2026-04-21 01:29 37.27591 -5.78976 33812 ft 483 kts
2026-04-21 01:30 37.30918 -5.78373 34115 ft 482 kts
2026-04-21 01:30 37.34247 -5.77770 34399 ft 482 kts
2026-04-21 01:30 37.37564 -5.77168 34691 ft 482 kts
2026-04-21 01:30 37.40880 -5.76555 34962 ft 482 kts
2026-04-21 01:31 37.44051 -5.75342 35233 ft 485 kts 23°
2026-04-21 01:31 37.47085 -5.73526 35468 ft 486 kts 23°
2026-04-21 01:31 37.50161 -5.71721 35663 ft 487 kts 23°
2026-04-21 01:31 37.53222 -5.69894 35847 ft 488 kts 24°
2026-04-21 01:32 37.59343 -5.66195 35871 ft 486 kts 24°
2026-04-21 01:32 37.65422 -5.62507 35881 ft 485 kts 24°
2026-04-21 01:33 37.71502 -5.58811 35885 ft 485 kts 24°
2026-04-21 01:33 37.77584 -5.55107 35879 ft 485 kts 24°
2026-04-21 01:34 37.83663 -5.51398 35902 ft 485 kts 24°
2026-04-21 01:34 37.89745 -5.47681 35897 ft 484 kts 24°
2026-04-21 01:35 37.95767 -5.43994 35898 ft 484 kts 24°
2026-04-21 01:35 38.01840 -5.40268 35885 ft 484 kts 24°
2026-04-21 01:36 38.07898 -5.36545 35914 ft 484 kts 24°
2026-04-21 01:36 38.13944 -5.32822 35897 ft 484 kts 24°
2026-04-21 01:37 38.19995 -5.29090 35919 ft 483 kts 24°
2026-04-21 01:37 38.26036 -5.25356 35918 ft 483 kts 24°
2026-04-21 01:38 38.32046 -5.21635 35914 ft 483 kts 24°
2026-04-21 01:38 38.38078 -5.17893 35926 ft 483 kts 24°
2026-04-21 01:39 38.44120 -5.14138 35922 ft 483 kts 24°
2026-04-21 01:39 38.50171 -5.10387 35915 ft 483 kts 22°
2026-04-21 01:40 38.56408 -5.07251 35937 ft 482 kts 20°
2026-04-21 01:40 38.62612 -5.04075 35911 ft 480 kts 20°
2026-04-21 01:41 38.68816 -5.00875 35917 ft 481 kts 20°
2026-04-21 01:41 38.74983 -4.97686 35935 ft 481 kts 20°
2026-04-21 01:42 38.81166 -4.94482 35924 ft 481 kts 20°
2026-04-21 01:42 38.87368 -4.91264 35926 ft 480 kts 20°
2026-04-21 01:43 38.93562 -4.88042 35914 ft 480 kts 20°
2026-04-21 01:43 38.99741 -4.84827 35928 ft 480 kts 20°
2026-04-21 01:44 39.05929 -4.81622 35940 ft 480 kts 20°
2026-04-21 01:44 39.12115 -4.78411 35928 ft 479 kts 20°
2026-04-21 01:45 39.18264 -4.75213 35933 ft 480 kts 20°
2026-04-21 01:45 39.24464 -4.71983 35944 ft 480 kts 20°
2026-04-21 01:46 39.30638 -4.68760 35940 ft 480 kts 20°
2026-04-21 01:46 39.36820 -4.65528 35943 ft 480 kts 20°
2026-04-21 01:47 39.43015 -4.62282 35934 ft 480 kts 20°
2026-04-21 01:47 39.49209 -4.59030 35939 ft 480 kts 20°
2026-04-21 01:48 39.55354 -4.55798 35940 ft 480 kts 20°
2026-04-21 01:48 39.61535 -4.52541 35937 ft 480 kts 20°
2026-04-21 01:49 39.67728 -4.49271 35929 ft 480 kts 20°
2026-04-21 01:49 39.73907 -4.46002 35937 ft 480 kts 20°
2026-04-21 01:50 39.79047 -4.43277 35930 ft 480 kts 21°
2026-04-21 01:50 39.85212 -4.39998 35935 ft 480 kts 21°
2026-04-21 01:51 39.91391 -4.36705 35931 ft 480 kts 21°
2026-04-21 01:51 39.97530 -4.33323 35923 ft 480 kts 24°
2026-04-21 01:52 40.06599 -4.27753 35931 ft 480 kts 24°
2026-04-21 01:53 40.12625 -4.24080 35930 ft 480 kts 24°
2026-04-21 01:53 40.18679 -4.20385 35933 ft 480 kts 24°
2026-04-21 01:54 40.24725 -4.16686 35941 ft 480 kts 24°
2026-04-21 01:54 40.30782 -4.12974 35938 ft 480 kts 24°
2026-04-21 01:55 40.36825 -4.09262 35940 ft 480 kts 24°
2026-04-21 01:55 40.42852 -4.05554 35959 ft 480 kts 24°
2026-04-21 01:56 40.48879 -4.01838 35945 ft 478 kts 24°
2026-04-21 01:56 40.54912 -3.98111 35955 ft 479 kts 24°
2026-04-21 01:57 40.60902 -3.94402 35959 ft 479 kts 24°
2026-04-21 01:57 40.66949 -3.90652 35952 ft 479 kts 24°
2026-04-21 01:58 40.72948 -3.86923 35969 ft 479 kts 24°
2026-04-21 01:58 40.78967 -3.83175 35966 ft 479 kts 24°